User: anonymous   Login
Location: Greenwich
(51.4790°N, 0.0090°E)
Time: 11:50:49
(UTC+01:00)
Language:

Tiros 1 despin weight - Orbit

View from above orbital plane
View from above orbital plane
View from above satellite
View from above satellite

Ground track
Ground track

The orbit data is extracted from the following two-line orbital elements,

1 00115U 60002D   24107.44326618  .00006024  00000-0  65260-3 0  9997
2 00115  48.1667  12.1035 0031371 308.9386  50.8734 14.88915194399733
Epoch (UTC): 16 April 2024 10:38:18
Eccentricity: 0.0031371
inclination: 48.1667°
perigee height: 579 km
apogee height: 623 km
right ascension of ascending node: 12.1035°
argument of perigee: 308.9386°
revolutions per day: 14.88915194
mean anomaly at epoch: 50.8734°
orbit number at epoch: 39973

The dashed part of the orbit path shows where the satellite is in the earth's shadow,  

DLR